Location: Unspecified
(40.7945°N, 0.0000°E)
Time: 07:56:42
(UTC+00:00)

Courier 1B - Pass Details

Date: 29 January 2021
Orbit: 962 x 1209 km, 28.3° (Epoch: 25 February)

Event Time Altitude Azimuth Distance (km) Brightness Sun altitude
Rises 00:04:37 0° 252° (WSW) 3,780 - -67.1°
Reaches altitude 10° 00:07:48 10° 241° (WSW) 2,789 - -67.1°
Maximum altitude 00:13:14 26° 187° (S) 1,812 - -67.1°
Drops below altitude 10° 00:18:30 10° 132° (SE) 2,697 - -67.1°
Sets 00:21:32 0° 120° (ESE) 3,632 - -67.1°
